Temperature
10 8 7 8 9 9 9 9 9 9 9 9 8 8 7 8 7 7 7 6 6 6 6 6 6 6 6 6 6 6 6 6 6 6 6 6 6 7 7 7 7 7 7 7
9 7 8 9 9 9 9 8 8 8 9 9 8 8 8 7 7 7 6 6 6 5 5 5 5 5 5 6 6 6 6 6 6 6 6 6 6 6 6 6 6 6 6 7
7 8 9 9 8 8 8 8 7 7 7 8 7 7 7 7 7 7 7 6 6 5 5 4 4 4 5 5 5 5 5 5 5 5 5 5 5 5 5 6 6 6 6 6
7 8 8 8 7 7 7 7 7 7 6 6 7 5 7 7 6 6 6 5 5 5 4 4 4 4 4 4 4 4 5 5 5 5 5 5 5 5 5 5 5 5 5 5
7 7 7 6 6 6 6 7 7 6 6 5 6 5 6 6 6 5 5 5 5 4 4 3 3 3 4 4 4 4 4 4 4 4 4 4 4 4 5 5 5 5 5 5
6 7 7 6 6 7 6 6 6 6 5 4 6 5 6 5 6 6 5 5 4 4 3 3 3 3 3 3 3 3 3 3 3 3 3 4 4 4 4 4 4 4 4 4
6 6 6 6 5 6 5 4 4 5 4 5 6 5 5 6 6 5 5 4 4 3 2 2 2 2 3 3 3 2 3 3 3 3 3 3 3 3 3 4 4 4 4 4
5 5 5 5 5 4 5 5 4 4 5 5 5 5 5 5 5 5 4 4 3 2 2 2 2 2 2 2 2 2 2 2 2 2 2 2 2 2 3 3 3 3 4 4
4 5 5 5 5 5 4 4 5 4 3 3 5 5 5 4 4 4 3 3 2 1 1 1 1 1 1 1 2 2 2 2 2 1 1 1 2 2 2 2 2 3 3 3
4 3 4 4 4 4 4 4 3 3 3 4 5 5 5 3 3 3 2 2 1 1 0 0 0 1 1 1 1 1 1 1 1 1 1 1 1 1 2 2 2 2 2 2
4 3 3 3 3 3 3 3 3 3 3 3 3 4 4 3 3 2 1 1 1 0 -0 -0 -0 -0 0 0 0 1 1 1 1 1 0 1 1 1 1 1 1 1 2 2
3 2 2 3 3 3 3 3 2 2 2 2 2 3 3 3 2 2 1 1 0 -0 -1 -1 -1 -1 -0 -0 -0 -0 -0 -0 -0 -0 -0 0 0 0 0 1 1 1 1 1
2 1 1 2 2 2 1 2 2 1 1 1 2 2 2 2 2 2 1 0 -0 -1 -1 -1 -1 -1 -1 -1 -1 -1 -1 -1 -1 -1 -1 -1 -0 -0 0 0 0 -0 0 0
2 1 1 2 2 1 1 1 1 1 0 1 1 2 2 1 1 1 0 -0 -1 -1 -2 -2 -2 -2 -2 -2 -2 -2 -1 -1 -1 -1 -1 -1 -1 -1 -1 -1 -1 -1 -0 -0
1 -0 0 0 1 1 1 0 0 -0 -0 -0 1 1 1 1 0 -0 -0 -1 -2 -2 -2 -2 -3 -3 -3 -3 -2 -2 -2 -2 -2 -2 -2 -2 -1 -1 -1 -1 -1 -1 -1 -1
-0 -1 -1 -1 0 0 0 -0 -0 -0 -0 -1 -0 -0 0 1 0 -1 -1 -2 -3 -3 -3 -3 -3 -3 -3 -3 -3 -3 -3 -3 -3 -2 -2 -2 -2 -2 -2 -2 -2 -2 -2 -2
-1 -1 -1 -1 0 -0 -1 -1 -1 -1 -1 -1 -1 -0 -1 -1 -2 -2 -2 -3 -3 -3 -4 -4 -4 -4 -4 -4 -4 -4 -3 -3 -3 -3 -3 -3 -3 -2 -2 -2 -2 -2 -2 -2
-2 -2 -1 -1 -1 -1 0 -1 -1 -1 -1 -2 -2 -2 -2 -2 -2 -2 -3 -3 -4 -4 -4 -4 -4 -4 -4 -4 -4 -4 -4 -4 -4 -4 -3 -3 -3 -3 -3 -3 -3 -3 -3 -3
-2 -2 -1 -1 -1 -1 0 -1 -2 -2 -3 -3 -3 -3 -3 -3 -3 -3 -3 -3 -4 -4 -5 -5 -5 -5 -5 -5 -5 -5 -5 -5 -4 -4 -4 -4 -4 -4 -4 -4 -3 -3 -3 -3
-3 -3 -2 -2 -1 -1 -0 -2 -2 -3 -3 -3 -3 -4 -4 -4 -4 -4 -4 -4 -5 -5 -5 -5 -5 -5 -5 -5 -5 -5 -5 -5 -5 -5 -5 -5 -5 -4 -4 -4 -4 -4 -4 -4
-3 -3 -3 -3 -2 -1 -3 -3 -3 -2 -2 -3 -3 -3 -4 -5 -5 -4 -5 -5 -5 -6 -6 -6 -5 -5 -6 -6 -6 -6 -6 -6 -6 -5 -5 -5 -5 -5 -5 -5 -5 -5 -5 -5
-3 -3 -3 -3 -2 -2 -4 -5 -4 -3 -3 -3 -3 -4 -4 -5 -5 -6 -6 -6 -6 -6 -6 -6 -6 -6 -6 -6 -6 -6 -6 -6 -6 -6 -6 -6 -6 -6 -6 -6 -5 -6 -6 -6
-3 -3 -3 -3 -3 -3 -3 -4 -3 -3 -4 -4 -4 -5 -5 -5 -6 -6 -6 -7 -7 -7 -7 -7 -7 -7 -7 -7 -7 -7 -6 -7 -7 -7 -6 -6 -6 -6 -6 -6 -6 -6 -6 -6
-4 -4 -4 -4 -4 -4 -4 -4 -4 -4 -4 -5 -5 -5 -6 -6 -6 -6 -7 -7 -7 -7 -7 -7 -7 -7 -7 -7 -7 -7 -7 -7 -7 -7 -7 -7 -7 -6 -6 -7 -7 -7 -7 -7
-4 -5 -5 -5 -5 -5 -4 -4 -4 -5 -5 -5 -6 -6 -6 -7 -7 -7 -7 -7 -8 -8 -8 -8 -8 -8 -8 -8 -8 -8 -8 -8 -8 -7 -7 -7 -7 -7 -7 -7 -7 -7 -7 -7
-6 -6 -6 -5 -5 -6 -5 -4 -5 -5 -6 -6 -6 -6 -7 -7 -7 -8 -8 -8 -8 -8 -8 -8 -8 -8 -8 -8 -8 -8 -8 -8 -8 -8 -8 -8 -8 -8 -8 -8 -8 -8 -8 -8
Wind_Speed
2 1 2 4 6 7 6 6 7 6 2 5 8 8 6 4 3 3 3 3 1 2 2 3 3 3 4 3 3 3 3 3 2 2 2 2 2 2 3 4 4 5 4 5
1 3 5 6 6 7 6 7 8 5 3 5 7 9 6 6 6 5 5 4 3 1 2 2 3 3 3 3 2 2 2 3 3 2 2 2 2 2 2 3 4 5 4 4
2 2 4 5 6 6 6 6 6 6 5 6 6 7 6 4 5 4 3 3 3 3 2 1 2 1 2 2 2 2 2 2 2 1 1 2 2 2 2 2 2 3 3 4
2 3 4 4 5 5 6 4 6 6 5 4 4 6 5 5 5 5 4 3 2 1 1 1 1 1 1 1 2 2 2 2 2 2 3 4 3 3 2 2 2 2 3 3
1 2 4 4 5 4 4 6 6 7 6 6 5 5 5 4 5 6 5 4 3 2 2 1 1 1 1 1 1 1 2 2 2 3 3 4 3 2 2 3 3 2 2 2
3 1 2 3 4 4 4 4 5 4 3 6 7 6 5 4 5 5 6 5 4 3 2 2 2 2 1 1 0 1 2 2 2 3 3 4 4 4 4 4 3 2 2 1
2 2 0 2 3 2 2 2 1 2 3 6 2 4 5 1 1 4 5 5 4 3 3 2 2 1 1 1 0 1 1 1 1 2 3 3 4 5 6 5 5 4 3 2
3 3 1 0 1 2 3 2 2 3 3 3 3 6 3 2 3 4 4 5 4 4 3 2 1 1 1 1 1 1 1 1 1 2 2 2 3 3 3 4 4 4 4 3
3 3 1 0 2 2 2 2 2 2 4 4 5 3 2 3 3 2 4 4 3 3 3 2 2 2 1 0 0 1 2 1 1 1 1 1 2 2 3 3 3 3 3 3
3 5 2 1 2 2 2 2 1 2 3 5 5 4 3 3 3 2 2 2 1 2 2 2 2 2 1 1 1 1 2 2 2 1 2 2 2 2 1 2 3 3 3 3
4 3 3 2 4 4 2 2 2 3 3 3 4 4 2 2 3 3 1 1 1 1 0 1 1 1 1 0 0 0 1 1 1 2 2 2 2 2 2 2 3 3 3 3
2 2 4 4 0 1 2 3 3 3 4 3 4 5 1 2 2 2 1 1 1 1 1 1 1 1 1 1 1 1 1 1 2 2 2 2 2 2 2 3 2 2 3 3
2 2 3 2 1 0 2 3 4 3 2 4 5 6 0 2 2 2 1 1 1 1 1 1 1 1 1 1 1 1 1 2 2 2 2 2 2 2 3 3 3 3 3 4
3 3 5 6 5 3 5 6 5 5 5 6 9 10 7 4 4 3 2 2 1 1 1 2 2 2 2 2 1 1 1 1 1 1 2 3 3 3 2 2 2 3 3 4
1 4 6 9 10 8 9 10 8 10 10 9 10 11 12 7 4 3 2 3 3 3 3 3 3 3 3 2 2 2 2 1 1 2 2 3 3 3 2 3 3 3 3 4
2 4 5 8 9 8 11 12 11 11 11 13 14 16 10 5 2 2 3 2 3 4 4 5 4 4 3 3 3 2 2 2 1 2 3 3 3 3 3 3 3 3 3 4
3 3 4 6 4 6 9 9 9 7 7 7 11 10 4 4 4 4 3 3 4 4 4 5 5 4 4 4 3 3 3 2 2 2 3 2 2 3 3 3 3 4 4 4
4 4 4 5 4 7 7 1 4 6 7 6 5 5 4 4 4 3 2 3 3 4 4 5 5 5 4 4 3 2 2 2 2 2 3 3 3 3 3 3 4 5 4 4
4 5 4 3 5 8 5 2 1 3 5 4 5 6 5 4 4 2 1 1 3 3 4 4 4 4 3 3 3 2 2 2 2 3 3 3 3 3 3 3 4 4 4 4
2 3 4 4 5 6 4 0 1 1 4 2 2 4 4 3 3 3 3 4 3 3 3 3 3 4 3 3 2 2 2 2 3 3 3 3 3 3 4 4 4 4 4 4
2 4 6 7 7 7 3 0 1 1 4 1 0 2 2 2 4 3 4 4 3 3 3 3 3 3 3 3 2 2 3 3 3 3 3 3 3 4 4 4 3 3 3 4
6 5 6 5 6 8 1 3 3 4 2 2 2 2 3 3 4 3 4 4 3 3 4 3 3 4 4 3 2 3 3 4 2 2 3 3 3 3 3 3 3 3 3 3
6 6 4 6 6 2 4 4 3 1 2 2 3 3 3 4 4 4 4 4 3 3 3 3 3 4 4 3 2 3 4 2 2 3 3 3 3 3 3 2 2 2 2 2
4 3 4 5 6 4 3 3 2 2 2 2 2 3 3 4 4 4 3 3 3 3 3 3 3 4 4 4 4 3 3 2 2 2 2 2 2 2 2 2 2 2 2 3
4 3 4 6 6 4 3 2 3 3 3 3 3 2 3 4 4 4 4 4 3 4 3 3 3 4 5 5 4 4 3 2 2 2 2 2 2 2 2 2 2 3 3 4
3 4 5 7 4 3 4 2 2 2 3 4 3 4 4 3 5 4 4 3 3 4 3 3 4 4 5 4 5 4 4 2 2 2 2 2 2 1 1 1 2 3 3 4
Wind_Direction
198 229 252 266 259 268 281 275 276 283 262 249 246 254 252 229 220 217 201 201 196 185 123 94 105 118 115 118 123 130 142 140 142 145 152 153 146 129 112 105 111 112 113 112
207 257 276 282 280 273 269 274 281 289 280 270 264 264 250 229 222 219 206 199 193 149 93 96 95 101 124 128 136 151 149 153 159 167 176 173 149 135 115 108 120 126 122 125
227 307 304 293 299 290 275 263 274 288 306 269 267 272 245 227 217 213 201 194 179 174 163 144 119 99 121 146 166 181 170 165 169 151 131 135 124 118 118 127 124 111 120 135
261 305 307 302 302 296 277 300 288 286 283 271 236 273 252 208 204 209 209 201 192 165 156 122 131 121 133 172 177 178 169 165 171 156 162 163 163 168 174 162 156 126 129 145
278 321 305 294 294 286 283 301 274 267 268 280 248 250 261 193 216 214 201 193 181 164 136 124 128 140 132 118 174 184 157 159 169 170 178 181 174 170 154 150 155 144 116 149
253 278 306 296 293 275 289 289 275 255 252 260 235 225 266 210 215 200 190 177 160 133 95 74 68 95 109 98 105 166 172 169 172 177 186 194 184 170 164 169 172 169 165 155
257 227 267 325 311 300 319 324 307 255 224 244 228 225 245 192 134 165 169 157 137 125 108 85 77 69 116 136 177 210 175 179 182 192 197 203 195 182 181 184 188 184 182 197
295 268 195 345 316 272 250 237 226 253 258 282 249 234 228 124 89 83 113 120 117 113 108 102 89 98 81 190 192 199 205 204 197 206 211 206 199 192 190 189 191 194 198 203
307 286 153 302 326 303 276 234 261 283 280 272 249 231 192 130 120 102 108 106 108 101 87 75 38 33 53 15 241 215 216 212 208 214 211 211 203 202 199 189 183 190 186 188
310 292 275 186 244 262 280 282 297 243 270 272 270 254 242 183 196 146 126 129 121 87 61 49 28 9 4 2 287 248 204 201 208 211 218 226 212 199 191 177 186 183 179 175
309 284 283 235 209 216 221 236 242 245 249 250 282 272 17 130 147 153 165 159 114 106 45 15 351 336 339 341 325 312 236 209 210 219 223 227 216 198 189 192 194 189 182 174
330 299 273 260 238 52 229 237 210 218 255 239 257 267 15 77 97 93 32 29 50 52 20 359 322 314 306 286 273 238 254 236 222 224 229 228 225 211 201 204 205 196 194 191
326 280 291 280 293 236 257 244 231 237 260 240 239 257 78 45 22 16 339 334 348 345 356 5 348 316 307 279 252 235 240 250 246 224 216 224 226 219 215 215 212 211 204 199
313 255 234 252 278 294 273 265 236 216 230 247 241 264 281 296 302 311 322 326 302 294 308 324 317 314 312 306 295 265 257 262 255 244 218 224 230 227 220 217 221 219 212 205
287 257 256 267 279 281 269 267 245 228 234 243 261 270 280 281 276 285 309 327 326 327 322 311 306 310 310 307 302 294 279 273 259 249 242 233 234 233 228 218 224 227 223 221
254 269 286 277 266 267 271 264 251 243 241 246 262 271 274 281 289 290 296 295 296 301 304 305 306 305 302 296 290 289 285 280 268 255 259 257 240 232 228 225 220 224 227 225
237 247 271 273 294 307 273 248 228 225 222 224 245 257 298 313 309 295 285 279 277 291 303 306 308 301 296 295 289 280 279 284 267 262 265 262 253 249 236 231 222 223 225 220
222 232 251 279 302 254 249 184 190 224 248 237 249 271 299 300 304 300 280 279 294 309 311 312 313 312 307 306 301 297 294 276 263 264 266 264 254 250 248 234 228 229 224 223
217 213 236 251 263 270 266 248 184 218 273 247 245 274 297 317 322 305 340 2 322 311 311 308 307 308 315 313 310 312 302 281 264 263 266 267 260 255 250 247 243 235 228 228
206 200 225 238 251 256 263 156 81 112 278 269 220 270 298 335 303 284 349 351 339 338 330 322 323 329 323 317 326 319 291 266 263 267 273 272 262 254 254 253 253 249 239 231
192 207 223 236 246 261 280 224 101 201 265 312 275 286 299 266 251 289 332 334 336 336 330 330 332 333 326 329 336 308 296 270 273 282 279 271 263 256 254 252 250 247 245 230
201 208 213 213 229 255 187 127 184 237 305 326 315 311 291 280 293 312 315 313 325 338 339 343 341 333 334 342 340 312 294 285 285 275 274 272 267 265 267 251 251 241 226 228
206 207 208 206 222 251 162 186 225 285 290 301 309 306 294 286 288 296 302 305 315 324 327 337 335 330 332 338 329 305 304 295 278 271 271 272 274 272 271 258 249 240 216 216
229 226 232 252 257 257 242 253 276 272 273 296 309 312 306 289 297 298 298 301 309 315 319 329 332 325 322 327 324 310 315 326 310 287 288 288 280 275 271 262 253 238 222 218
227 192 232 253 272 294 274 265 287 312 321 313 312 313 305 299 297 294 296 298 304 311 316 318 311 307 311 320 320 320 322 328 320 308 308 310 299 282 279 274 252 249 240 229
209 213 225 246 249 241 268 304 325 304 301 304 304 311 315 305 301 302 298 299 306 309 313 312 309 308 311 318 319 321 320 319 310 310 312 303 298 291 283 284 303 285 269 268
Height
1484 1487 1488 1486 1484 1483 1481 1482 1482 1480 1479 1481 1481 1480 1480 1480 1480 1481 1481 1482 1483 1484 1484 1485 1485 1486 1488 1489 1491 1493 1494 1495 1497 1499 1501 1503 1505 1507 1509 1511 1513 1515 1517 1518
1485 1487 1485 1483 1482 1481 1481 1483 1482 1481 1480 1480 1479 1477 1476 1476 1477 1478 1479 1480 1481 1482 1482 1483 1483 1484 1485 1486 1488 1490 1491 1493 1495 1497 1499 1501 1502 1504 1506 1508 1511 1513 1514 1516
1485 1486 1483 1483 1483 1483 1482 1483 1483 1483 1481 1479 1480 1477 1473 1472 1473 1475 1476 1478 1478 1479 1480 1480 1481 1481 1482 1484 1485 1486 1488 1490 1492 1494 1496 1498 1500 1502 1504 1505 1507 1509 1511 1513
1485 1484 1484 1483 1484 1484 1484 1482 1482 1482 1485 1484 1481 1484 1472 1470 1471 1472 1474 1475 1476 1477 1478 1479 1479 1479 1480 1481 1482 1484 1485 1487 1489 1491 1492 1494 1495 1497 1499 1502 1504 1506 1509 1510
1486 1485 1485 1485 1485 1485 1484 1482 1482 1482 1484 1486 1480 1484 1474 1468 1470 1470 1471 1473 1474 1476 1476 1477 1477 1477 1478 1479 1480 1481 1483 1484 1486 1488 1489 1491 1492 1494 1496 1499 1501 1503 1505 1507
1485 1485 1485 1485 1484 1483 1483 1482 1481 1481 1484 1489 1477 1481 1472 1468 1466 1466 1468 1470 1472 1474 1474 1475 1475 1475 1476 1477 1478 1479 1480 1481 1483 1485 1486 1487 1489 1491 1493 1495 1496 1499 1501 1504
1485 1485 1485 1485 1485 1484 1485 1489 1489 1487 1488 1482 1473 1475 1471 1464 1463 1463 1466 1468 1470 1472 1472 1473 1473 1473 1474 1475 1475 1476 1478 1478 1480 1481 1482 1484 1485 1487 1488 1490 1492 1494 1497 1499
1488 1488 1486 1485 1487 1488 1486 1487 1493 1491 1484 1477 1475 1474 1467 1463 1463 1464 1465 1467 1469 1471 1471 1472 1472 1472 1472 1473 1473 1474 1475 1475 1477 1478 1479 1481 1482 1483 1485 1487 1488 1490 1493 1495
1492 1488 1485 1485 1485 1487 1486 1488 1487 1490 1488 1487 1474 1466 1466 1464 1464 1465 1466 1467 1469 1470 1470 1471 1470 1471 1471 1471 1471 1471 1472 1473 1474 1475 1476 1477 1479 1480 1481 1483 1485 1487 1489 1491
1493 1493 1486 1485 1486 1487 1487 1487 1490 1490 1489 1483 1471 1466 1465 1466 1465 1465 1466 1467 1468 1469 1469 1468 1469 1468 1468 1468 1468 1469 1469 1470 1471 1472 1473 1474 1475 1477 1478 1480 1481 1483 1485 1487
1494 1495 1490 1487 1487 1487 1489 1489 1488 1488 1486 1487 1482 1472 1464 1463 1463 1464 1466 1466 1467 1467 1467 1467 1467 1467 1466 1466 1465 1466 1466 1467 1467 1468 1469 1470 1472 1473 1475 1476 1478 1479 1481 1483
1495 1496 1494 1488 1485 1485 1486 1486 1488 1493 1490 1485 1485 1477 1464 1462 1462 1463 1465 1465 1466 1466 1465 1465 1465 1464 1464 1463 1463 1463 1463 1463 1464 1465 1466 1467 1468 1469 1471 1472 1474 1475 1477 1478
1496 1498 1496 1488 1490 1489 1488 1487 1487 1489 1489 1488 1484 1475 1464 1463 1463 1463 1464 1464 1464 1464 1463 1462 1462 1461 1461 1460 1460 1460 1460 1460 1461 1461 1462 1463 1464 1465 1466 1468 1469 1471 1472 1473
1496 1498 1499 1494 1487 1488 1489 1487 1486 1489 1491 1485 1478 1470 1464 1464 1464 1463 1463 1463 1462 1462 1461 1460 1459 1459 1458 1457 1457 1457 1457 1457 1457 1457 1458 1458 1459 1460 1462 1463 1465 1466 1467 1469
1496 1498 1494 1490 1487 1486 1485 1483 1483 1485 1483 1482 1473 1470 1463 1463 1463 1462 1462 1461 1460 1459 1458 1458 1457 1456 1455 1454 1453 1453 1453 1453 1453 1453 1453 1454 1455 1456 1458 1459 1460 1461 1462 1464
1496 1496 1494 1491 1485 1483 1481 1478 1478 1478 1477 1476 1473 1468 1461 1461 1461 1461 1460 1459 1458 1457 1456 1455 1454 1453 1451 1450 1450 1449 1449 1449 1449 1449 1449 1450 1451 1452 1453 1454 1455 1456 1458 1459
1495 1496 1495 1488 1483 1482 1480 1471 1471 1470 1468 1469 1468 1463 1460 1461 1460 1459 1458 1457 1456 1455 1454 1452 1451 1449 1448 1447 1446 1445 1445 1445 1445 1445 1445 1445 1446 1447 1448 1449 1450 1451 1452 1454
1493 1493 1493 1489 1488 1487 1468 1464 1463 1465 1464 1464 1462 1460 1460 1460 1459 1458 1457 1455 1454 1453 1451 1450 1448 1446 1445 1444 1443 1442 1441 1440 1440 1440 1440 1441 1442 1442 1443 1444 1445 1446 1447 1448
1488 1490 1490 1489 1485 1474 1464 1464 1464 1466 1464 1461 1460 1459 1459 1458 1456 1455 1454 1453 1452 1451 1449 1448 1446 1444 1442 1440 1439 1438 1437 1437 1436 1436 1436 1437 1438 1438 1439 1439 1440 1441 1442 1443
1487 1489 1491 1486 1484 1476 1464 1464 1462 1465 1466 1460 1459 1458 1457 1457 1458 1455 1453 1451 1449 1448 1447 1445 1443 1440 1439 1437 1436 1435 1433 1433 1433 1433 1433 1433 1434 1434 1434 1435 1435 1436 1437 1437
1488 1488 1488 1485 1480 1470 1466 1463 1463 1468 1463 1459 1457 1457 1456 1456 1455 1453 1451 1449 1447 1446 1444 1442 1440 1437 1436 1435 1433 1431 1431 1430 1430 1430 1430 1430 1430 1430 1430 1430 1431 1431 1432 1433
1481 1482 1482 1479 1477 1470 1464 1464 1466 1463 1458 1457 1456 1456 1455 1453 1452 1450 1448 1446 1445 1443 1441 1439 1437 1434 1433 1432 1430 1428 1428 1427 1427 1427 1426 1426 1426 1426 1426 1426 1426 1427 1427 1428
1474 1473 1471 1472 1468 1462 1460 1459 1459 1458 1457 1456 1455 1454 1453 1450 1449 1447 1445 1444 1442 1440 1438 1436 1434 1432 1430 1429 1428 1426 1425 1424 1424 1423 1423 1423 1423 1423 1423 1422 1422 1422 1423 1423
1468 1467 1467 1466 1460 1458 1458 1457 1456 1456 1455 1453 1453 1452 1450 1448 1446 1445 1443 1441 1439 1437 1435 1434 1432 1429 1428 1427 1426 1424 1423 1422 1421 1420 1420 1420 1419 1419 1419 1419 1419 1419 1419 1419
1463 1465 1464 1462 1458 1456 1453 1453 1453 1452 1451 1450 1450 1449 1447 1446 1444 1442 1440 1438 1437 1435 1433 1431 1430 1428 1426 1425 1423 1422 1421 1419 1418 1417 1416 1416 1416 1415 1415 1416 1416 1416 1416 1417
1460 1461 1461 1457 1454 1454 1452 1450 1450 1449 1448 1447 1446 1445 1444 1443 1441 1439 1437 1436 1434 1433 1431 1429 1427 1426 1424 1423 1421 1420 1419 1418 1416 1415 1414 1413 1413 1413 1413 1412 1412 1413 1414 1414